Regional Weather Roundup
Issued by NWS Kansas City/Pleasant Hill, MO

Home | Current Version | Previous Version | Text Only | Print | Product List | Glossary On
Versions: 1 2 3 4 5 6 7 8 9 10 11 12 13 14 15 16 17 18 19 20 21 22 23 24 25 26 27 28 29 30 31 32 33 34 35 36 37 38 39 40 41 42 43 44 45 46 47 48 49 50
000
ASUS43 KEAX 051810
RWREAX

WEATHER ROUNDUP FOR EASTERN KANSAS AND NORTHWEST MISSOURI
NATIONAL WEATHER SERVICE KANSAS CITY/PLEASANT HILL MO
100 PM CDT SUN JUL 05 2015

KSZ040-057-103>105-MOZ028-029-037-043-051900-
...KANSAS CITY METROPOLITAN AREA...

CITY           SKY/WX    TMP DP  RH WIND       PRES   REMARKS
K.C. INTL      CLOUDY    84  73  69 S14       29.96F HX  90
6HR MIN TEMP:  69; 6HR MAX TEMP:  84;

K.C. DOWNTOWN  CLOUDY    88  74  63 S10       29.95F HX  96
6HR MIN TEMP:  72; 6HR MAX TEMP:  88;

LEES SUMMIT    CLOUDY    85  72  65 S10G17    29.98F HX  91
6HR MIN TEMP:  69; 6HR MAX TEMP:  85;

OLATHE - IXD   PTSUNNY   86  73  65 S13       29.97F HX  93
6HR MIN TEMP:  69; 6HR MAX TEMP:  86;

OLATHE - OJC   PTSUNNY   82  73  74 S13       29.97F
6HR MIN TEMP:  67; 6HR MAX TEMP:  83;

LAWRENCE       PTSUNNY   87  74  64 S12       29.94F HX  95

$$

MOZ001>008-011>017-020>025-030>033-038>040-044>046-053-054-051900-
...NORTHERN AND CENTRAL MISSOURI...

CITY           SKY/WX    TMP DP  RH WIND       PRES   REMARKS
ST. JOSEPH     CLOUDY    85  72  65 S12       29.95F HX  91
6HR MIN TEMP:  70; 6HR MAX TEMP:  85;

MOSBY          MOCLDY    86  68  54 S8        29.97F
HARRISONVILLE  CLOUDY    86  73  66 S7        30.01F HX  93
WHITEMAN AFB   MOSUNNY   85  73  65 S9        29.98F HX  92
6HR MIN TEMP:  69; 6HR MAX TEMP:  86;

CLINTON        PTSUNNY   84  75  74 S10       30.00F HX  92
SEDALIA        PTSUNNY   84  73  69 SE8       30.02F HX  90
6HR MIN TEMP:  69; 6HR MAX TEMP:  85;

WARSAW         NOT AVBL
CHILLICOTHE      N/A     85  71  63 VRB7      29.99F HX  90
6HR MIN TEMP:  66; 6HR MAX TEMP:  86;

KIRKSVILLE     PTSUNNY   84  68  58 S9        30.02F
6HR MIN TEMP:  66; 6HR MAX TEMP:  84; 6HR PCP: TRACE;


$$

MOZ041-047>049-056>058-063>065-088>090-097-051900-
...EASTERN AND SOUTHERN MISSOURI...

CITY           SKY/WX    TMP DP  RH WIND       PRES   REMARKS
ST. LOUIS INTL PTSUNNY   85  66  53 SW5       30.07S
6HR MIN TEMP:  70; 6HR MAX TEMP:  87;

SPIRIT OF STL  MOSUNNY   83  68  60 S6        30.04F
COLUMBIA       MOSUNNY   83  71  67 SE9       30.04S
JEFFERSON CITY SUNNY     81  70  69 SE8       30.03F
ROLLA          MOSUNNY   81  70  69 SE6       30.06S
LEBANON        MOSUNNY   82  72  69 MISG      30.07S
OSAGE BEACH    MOSUNNY   84  72  65 SE6       30.04S
SPRINGFIELD    MOSUNNY   83  71  67 S6        30.04S
BRANSON        PTSUNNY   82  73  74 SE5       30.07F
JOPLIN         PTSUNNY   85  74  69 S9        30.01F HX  92
WEST PLAINS    PTSUNNY   81  69  67 VRB5      30.10S
MALDEN         MOSUNNY   84  70  61 S3        30.08S

$$

IAZ060-094-KSZ022-034>040-054-083-096-NEZ052-066-093-051900-
...KANSAS...SOUTHEAST NEBRASKA AND IOWA...

CITY           SKY/WX    TMP DP  RH WIND       PRES   REMARKS
TOPEKA         PTSUNNY   88  73  61 S12       29.94S THUNDER HX  95
6HR MIN TEMP:  70; 6HR MAX TEMP:  88;

MANHATTAN      MOSUNNY   91  72  53 S17       29.89F HX  98
EMPORIA        MOSUNNY   81  72  74 SE13      29.94F
CHANUTE        MOSUNNY   88  74  63 S9        29.97F HX  96
WICHITA        MOSUNNY   93  70  46 S14G22    29.91F HX  99
OMAHA          CLOUDY    80  69  69 S21       29.87F
LINCOLN        MOSUNNY   83  72  69 S15G22    29.88F
FALLS CITY     CLOUDY    88  72  58 S18G24    29.91F HX  94
LAMONI         PTSUNNY   84  71  65 S9        29.98F
DES MOINES     CLOUDY    82  69  64 S10       29.95F

$$




USA.gov is the U.S. government's official web portal to all federal, state and local government web resources and services.